Regional Weather Roundup
Issued by NWS State College, PA

Home | Current Version | Previous Version | Text Only | Print | Product List | Glossary On
Versions: 1 2 3 4 5 6 7 8 9 10 11 12 13 14 15 16 17 18 19 20 21 22 23 24 25 26 27 28 29 30 31 32 33 34 35 36 37 38 39 40 41 42 43 44 45 46 47 48 49 50
000
ASUS41 KCTP 030110
RWRCTP

REGIONAL WEATHER ROUNDUP
NATIONAL WEATHER SERVICE STATE COLLEGE PA
900 PM EDT SUN AUG 02 2015

Note: "fair" indicates few or no clouds below 12,000 feet with no
significant weather and/or obstructions to visibility.

* = STATION THAT DOES NOT REPORT PRECIPITATION /E.G. RAIN...SNOW...ETC/
    THUNDER OR FOG.

PAZ002>004-007>009-013>016-020>023-029>032-030200-
WESTERN PENNSYLVANIA

CITY           SKY/WX    TMP DP  RH WIND       PRES   REMARKS
ERIE           PTCLDY    82  62  50 S14       29.76F
MEADVILLE      CLEAR     78  61  55 SW9       29.85R
FRANKLIN*      CLEAR     73  61  64 SW8       29.89R
NEW CASTLE     FAIR      78  65  64 CALM      29.88R
BEAVER COUNTY  NOT AVBL
BUTLER*        CLEAR     77  61  57 SW7       29.90R
PITTSBURGH INT PTCLDY    80  61  52 SW9       29.89R
PITTSBURGH     CLEAR     77  58  51 S9        29.89S
INDIANA*       CLEAR     75  64  69 SW6       29.93S
LATROBE        CLEAR     77  63  61 SW8       29.91S
WASHINGTON CO* NOT AVBL
$$

PAZ004>006-010>012-017>019-024>028-033>037-041-042-045-046-049>053-030200-
CENTRAL PENNSYLVANIA

CITY           SKY/WX    TMP DP  RH WIND       PRES   REMARKS
BRADFORD       PTCLDY    73  57  57 S5        29.89S
DUBOIS         CLEAR     74  60  61 SW5       29.90R
CLEARFIELD     CLEAR     75  62  64 SW7       29.90S
JOHNSTOWN      CLEAR     73  58  59 SW10      29.95F
ALTOONA        CLEAR     72  61  68 S6        29.92F
STATE COLLEGE  CLEAR     72  63  73 SW6       29.88F
WILLIAMSPORT   CLEAR     79  60  52 S9        29.83F
SELINSGROVE    CLEAR     69  66  90 CALM      29.86F
FT INDIANTOWN  CLEAR     71  62  73 N1        29.89F
CAPITAL CITY   CLEAR     80  58  46 S8        29.88F
HARRISBURG     PTCLDY    80  62  54 S7        29.87F
YORK           CLEAR     69  63  81 S3        29.90F
$$

PAZ038>040-043-044-047-048-054-055-060>062-067>071-030200-
EASTERN PENNSYLVANIA

CITY           SKY/WX    TMP DP  RH WIND       PRES   REMARKS
SCRANTON       CLEAR     77  58  51 VRB7      29.88F
MOUNT POCONO   CLEAR     69  58  67 SW5       29.95F
ALLENTOWN      CLEAR     74  59  59 SW6       29.89F
QUAKERTOWN*    CLEAR     73  63  68 CALM      29.92S
READING        CLEAR     79  59  50 S5        29.88F
LANCASTER      CLEAR     78  60  53 S5        29.90F
COATESVILLE    CLEAR     73  63  68 CALM      29.94R
POTTSTOWN      CLEAR     74  62  66 CALM      29.92S
BLUE BELL      CLEAR     70  64  83 CALM      29.90S
DOYLESTOWN     CLEAR     75  56  51 CALM      29.90S
WILLOW GROVE   NOT AVBL
NORTH PHILA    PTCLDY    80  55  42 W6        29.91R
PHILADELPHIA   PTCLDY    83  56  39 SW9       29.91R
$$


USA.gov is the U.S. government's official web portal to all federal, state and local government web resources and services.